This demonstration page uses our WeatherBlox Daily Observations layout. Learn more.

Hourly Observations for March 16, 2015

Temp ( °F °C ) Dew Point ( °F °C ) Humidity (%) Winds ( mph kmh ) Pressure ( in mb ) Visibility ( mi km ) Precip ( " mm )
12:15 am 00:15 Clear 59 15 22 -5.8 23 23 SSW 14 22 30 1016 10 16.0934 0 0
12:35 am 00:35 Clear 57 14.1 22 -5.6 25 25 SSW 12 19 30 1016 10 16.0934 0 0
12:55 am 00:55 Clear 56 13.6 22 -5.5 26 26 SSW 10 17 30 1016 10 16.0934 0 0
1:15 am 01:15 Clear 56 13.5 22 -5.5 26 26 SW 12 19 29.97 1015 10 16.0934 0 0
1:35 am 01:35 Clear 56 13.1 22 -5.5 27 27 SW 13 20 29.97 1015 10 16.0934 0 0
1:55 am 01:55 Clear 54 12.4 22 -5.5 28 28 SW 12 19 30 1016 10 16.0934 0 0
2:15 am 02:15 Clear 54 12 22 -5.5 29 29 SW 12 19 30 1016 10 16.0934 0 0
2:35 am 02:35 Clear 52 11.2 22 -5.5 31 31 SW 13 20 30 1016 10 16.0934 0 0
2:55 am 02:55 Clear 52 11.1 22 -5.6 31 31 SW 12 19 30 1016 10 16.0934 0 0
3:15 am 03:15 Clear 49 9.5 22 -5.7 34 34 SW 10 17 30 1016 10 16.0934 0 0
3:35 am 03:35 Clear 50 10 22 -5.6 33 33 SW 10 17 30 1016 10 16.0934 0 0
3:55 am 03:55 Clear 50 9.8 22 -5.5 34 34 SW 13 20 30 1016 10 16.0934 0 0
4:15 am 04:15 Clear 52 10.9 22 -5.3 32 32 SW 15 24 29.97 1015 10 16.0934 0 0
4:35 am 04:35 Clear 50 10.2 22 -5.5 33 33 SW 12 19 29.97 1015 10 16.0934 0 0
4:55 am 04:55 Clear 49 9.5 22 -5.5 35 35 SW 12 19 29.97 1015 10 16.0934 0 0
5:15 am 05:15 Clear 49 9.6 22 -5.5 34 34 SW 13 20 29.97 1015 10 16.0934 0 0
5:35 am 05:35 Clear 48 8.9 22 -5.6 36 36 SW 10 17 29.97 1015 10 16.0934 0 0
5:55 am 05:55 Clear 49 9.3 22 -5.4 35 35 SW 12 19 29.97 1015 10 16.0934 0 0
6:15 am 06:15 Clear 48 9.1 22 -5.5 35 35 SW 10 17 29.97 1015 10 16.0934 0 0
6:35 am 06:35 Clear 47 8.6 22 -5.5 37 37 SW 10 17 29.94 1014 10 16.0934 0 0
6:55 am 06:55 Clear 48 8.9 22 -5.5 36 36 SSW 14 22 29.94 1014 10 16.0934 0 0
7:15 am 07:15 Clear 46 8 22 -5.3 39 39 SW 9 15 29.97 1015 10 16.0934 0 0
7:35 am 07:35 Clear 45 7.4 23 -5.1 41 41 SW 10 17 29.97 1015 10 16.0934 0 0
7:55 am 07:55 Sunny 45 7 23 -5.2 42 42 Calm 29.97 1015 10 16.0934 0 0
8:15 am 08:15 Sunny 43 6 23 -5.1 45 45 S 3 6 29.97 1015 10 16.0934 0 0
8:35 am 08:35 Sunny 44 6.5 23 -4.8 45 45 SW 3 6 29.97 1015 10 16.0934 0 0
8:55 am 08:55 Sunny 47 8.1 24 -4.6 41 41 SSW 6 9 29.97 1015 10 16.0934 0 0
9:15 am 09:15 Sunny 50 10.1 24 -4.6 36 36 SSW 7 11 29.94 1014 10 16.0934 0 0
9:35 am 09:35 Sunny 53 11.4 24 -4.4 33 33 SSW 7 11 29.94 1014 10 16.0934 0 0
9:55 am 09:55 Sunny 55 12.6 24 -4.2 31 31 S 5 7 29.88 1012 10 16.0934 0 0
10:15 am 10:15 Sunny 59 14.9 25 -3.8 27 27 SSW 9 15 29.88 1012 10 16.0934 0 0
10:35 am 10:35 Sunny 61 16.1 25 -4.1 25 25 SSW 15 24 29.85 1011 10 16.0934 0 0
10:55 am 10:55 Sunny 63 17.3 25 -4 23 23 SSW 12 19 29.85 1011 10 16.0934 0 0
11:15 am 11:15 Sunny 66 19 25 -4.1 21 21 SSW 14 22 29.83 1010 10 16.0934 0 0
11:35 am 11:35 Sunny 69 20.4 24 -4.7 18 18 SSW 12 19 29.83 1010 10 16.0934 0 0
11:55 am 11:55 Sunny 72 22.2 22 -5.3 15 15 SSW 14 22 29.83 1010 10 16.0934 0 0
12:15 pm 12:15 Sunny 74 23.5 23 -5 15 15 SW 14 22 29.77 1008 10 16.0934 0 0
12:35 pm 12:35 Sunny 76 24.4 23 -4.9 14 14 SW 13 20 29.77 1008 10 16.0934 0 0
12:55 pm 12:55 Sunny 78 25.3 23 -5 13 13 SW 13 20 29.77 1008 10 16.0934 0 0
1:15 pm 13:15 Sunny 79 26.1 23 -5.1 12 12 SW 13 20 29.71 1006 10 16.0934 0 0
1:35 pm 13:35 Sunny 80 26.8 22 -5.3 12 12 SW 13 20 29.71 1006 10 16.0934 0 0
1:55 pm 13:55 Sunny 82 27.8 22 -5.8 11 11 SW 13 20 29.71 1006 10 16.0934 0 0
2:15 pm 14:15 Sunny 83 28.5 21 -6 10 10 WSW 8 13 29.68 1005 10 16.0934 0 0
2:35 pm 14:35 Sunny 84 29 19 -7.2 9 9 SSW 8 13 29.65 1004 10 16.0934 0 0
2:55 pm 14:55 Sunny 85 29.6 16 -8.8 7 7 SW 9 15 29.65 1004 10 16.0934 0 0
3:15 pm 15:15 Sunny 87 30.5 14 -9.9 6 6 WSW 7 11 29.65 1004 10 16.0934 0 0
3:35 pm 15:35 Sunny 87 30.7 12 -11.3 6 6 WSW 9 15 29.65 1004 10 16.0934 0 0
3:55 pm 15:55 Sunny 87 30.8 12 -11.2 6 6 W 9 15 29.65 1004 10 16.0934 0 0
4:15 pm 16:15 Sunny 87 30.8 11 -11.7 5 5 WNW 7 11 29.65 1004 10 16.0934 0 0
4:35 pm 16:35 Sunny 88 30.9 11 -11.7 5 5 W 7 11 29.65 1004 10 16.0934 0 0
4:55 pm 16:55 Sunny 88 31 11 -11.7 5 5 W 5 7 29.65 1004 10 16.0934 0 0
5:15 pm 17:15 Sunny 88 31 11 -11.5 6 6 WNW 3 6 29.65 1004 10 16.0934 0 0
5:35 pm 17:35 Sunny 88 31.1 12 -10.9 6 6 NW 3 6 29.65 1004 10 16.0934 0 0
5:55 pm 17:55 Sunny 87 30.4 26 -3.6 11 11 N 31 50 29.68 1005 7 11.26538 0 0
6:15 pm 18:15 Hazy 78 25.7 33 0.6 19 19 NNE 33 54 29.74 1007 5 8.0467 0 0
6:35 pm 18:35 Sunny 76 24.3 33 0.6 21 21 NNE 35 56 29.8 1009 10 16.0934 0 0
6:55 pm 18:55 Sunny 74 23.1 34 1 23 23 NNE 32 52 29.8 1009 10 16.0934 0 0
7:15 pm 19:15 Sunny 71 21.6 35 1.6 27 27 NNE 31 50 29.85 1011 10 16.0934 0 0
7:35 pm 19:35 Sunny 68 20.2 36 2 30 30 NNE 31 50 29.88 1012 10 16.0934 0 0
7:55 pm 19:55 Clear 67 19.2 36 2.3 33 33 NNE 28 44 29.94 1014 10 16.0934 0 0
8:15 pm 20:15 Clear 65 18.2 36 2.3 35 35 NNE 29 46 29.97 1015 10 16.0934 0 0
8:35 pm 20:35 Clear 63 17.4 35 1.7 35 35 NNE 32 52 30 1016 10 16.0934 0 0
8:55 pm 20:55 Clear 60 15.4 33 0.6 37 37 NNE 30 48 30.06 1018 10 16.0934 0 0
9:15 pm 21:15 Clear 57 14.1 33 0.5 40 40 NNE 32 52 30.06 1018 10 16.0934 0 0
9:35 pm 21:35 Clear 55 12.9 33 0.5 43 43 N 26 43 30.12 1020 10 16.0934 0 0
9:55 pm 21:55 Clear 52 11.3 33 0.3 47 47 N 28 44 30.12 1020 10 16.0934 0 0
10:15 pm 22:15 Clear 50 10.1 33 0.3 51 51 N 26 43 30.15 1021 10 16.0934 0 0
10:35 pm 22:35 Clear 48 8.9 33 0.3 55 55 NNE 31 50 30.18 1022 10 16.0934 0 0
10:55 pm 22:55 Clear 47 8.1 32 0.2 58 58 NNE 29 46 30.21 1023 10 16.0934 0 0
11:15 pm 23:15 Clear 46 7.6 33 0.5 61 61 NNE 30 48 30.21 1023 10 16.0934 0 0
11:35 pm 23:35 Clear 45 7.2 33 0.5 63 63 NNE 26 43 30.24 1024 10 16.0934 0 0
11:55 pm 23:55 Clear 44 6.5 33 0.4 65 65 NNE 29 46 30.27 1025 10 16.0934 0 0

Powered by AerisWeather